This is the latest recevied weather packets stored in our database for station/object W2DRT. If no packets are shown the sender has not sent any weather packets the latest 10 day(s).
| Time | Temp. | Humidity | Pressure | Rain* | Wind** | Luminosity | Snow |
|---|---|---|---|---|---|---|---|
| 1777518932 | 10° C | 80% | 1010.6 hPa | - | - | - | - |
| 1777518332 | 10° C | 79% | 1010.6 hPa | - | - | - | - |
| 1777517730 | 10° C | 79% | 1010.9 hPa | - | - | - | - |
| 1777517125 | 10° C | 79% | 1011.2 hPa | - | - | - | - |
| 1777516525 | 10° C | 78% | 1011.2 hPa | - | - | - | - |
| 1777515923 | 10° C | 78% | 1011.2 hPa | - | - | - | - |
| 1777515323 | 10° C | 77% | 1011.6 hPa | - | - | - | - |
| 1777514720 | 10° C | 77% | 1011.6 hPa | - | - | - | - |
| 1777514120 | 10° C | 76% | 1011.2 hPa | - | - | - | - |
| 1777513521 | 10.56° C | 76% | 1011.2 hPa | - | - | - | - |
| 1777512919 | 10.56° C | 75% | 1011.6 hPa | - | - | - | - |
| 1777512319 | 10.56° C | 75% | 1011.6 hPa | - | - | - | - |
| 1777511714 | 10.56° C | 75% | 1011.6 hPa | - | - | - | - |
| 1777511113 | 10.56° C | 74% | 1011.9 hPa | - | - | - | - |
| 1777510511 | 10.56° C | 74% | 1011.6 hPa | - | - | - | - |
| 1777509309 | 11.11° C | 71% | 1011.2 hPa | - | - | - | - |
| 1777508709 | 11.11° C | 68% | 1011.6 hPa | - | - | - | - |
| 1777508109 | 11.11° C | 66% | 1011.6 hPa | - | - | - | - |
| 1777507508 | 11.67° C | 63% | 1010.9 hPa | - | - | - | - |
| 1777505699 | 13.33° C | 55% | 1011.2 hPa | - | - | - | - |
| 1777505099 | 13.33° C | 53% | 1011.2 hPa | - | - | - | - |
| 1777502695 | 14.44° C | 49% | 1011.2 hPa | - | - | - | - |
| 1777500288 | 15.56° C | 48% | 1011.6 hPa | - | - | - | - |
| 1777498481 | 16.11° C | 48% | 1011.6 hPa | - | - | - | - |
| 1777496678 | 17.22° C | 48% | 1011.6 hPa | - | - | - | - |
* Rain since midnight (hover to see other rain measurements)
** Current wind speed in m/s (hover to see current wind gust speed)